Bryce Canyon, UT

1:26 PM MDT on July 28, 2017 (GMT -0600)
Bryce Canyon

Weather History for KBCE - September, 2012

Change the Weather History Date:

Sunday, September 16, 2012

  Actual Average Record
Temperature  
Mean Temperature 55 °F -  
Max Temperature 75 °F 69 °F 82 °F (2000)
Min Temperature 37 °F 36 °F 23 °F (1970)
Degree Days  
Heating Degree Days 10    
Growing Degree Days 5 (Base 50)    
Moisture  
Dew Point 28 °F    
Average Humidity 41    
Maximum Humidity 76    
Minimum Humidity 13    
Precipitation  
Precipitation 0.00 in - - ()
Sea Level Pressure  
Sea Level Pressure 30.07 in    
Wind  
Wind Speed 8 mph (WNW)    
Max Wind Speed 15 mph    
Max Gust Speed 25 mph    
Visibility 10 miles    
Events      
Averages and records for this station are not official NWS values.
T = Trace of Precipitation, MM = Missing Value Source: NWS Daily Summary

Daily Weather History Graph

Daily Weather History Graph

Search for Another Location

Airport or City:

Trip Planner

Search our weather history database for the weather conditions in past years. The results will help you decide how hot, cold, wet, or windy it might be!

Date:

Astronomy

Sep. 16, 2012 Rise Set
Actual Time 7:11 AM MDT 7:34 PM MDT
Civil Twilight 6:45 AM MDT 8:00 PM MDT
Nautical Twilight 6:14 AM MDT 8:30 PM MDT
Astronomical Twilight 5:43 AM MDT 9:02 PM MDT
Moon 7:53 AM MDT (9/16) 7:43 PM MDT (9/16)
Length of Visible Light 13h 14m
Length of Day
12h 22m
New Moon, 1% of the Moon is Illuminated
Sep 16
New Moon
Sep 22
First Quarter
Sep 29
Full
Oct 8
Last Quarter
Oct 15
New

Hourly Weather History & Observations

Time (MDT) Temp. Windchill Dew Point Humidity Pressure Visibility Wind Dir Wind Speed Gust Speed Precip Events Conditions
12:53 AM 44.1 °F 38.6 °F 34.0 °F 68% 30.09 in 10.0 mi West 10.4 mph - N/A   Clear
1:53 AM 42.1 °F - 33.1 °F 70% 30.11 in 10.0 mi Calm Calm - N/A   Clear
2:53 AM 41.0 °F 35.2 °F 33.1 °F 73% 30.10 in 10.0 mi West 9.2 mph - N/A   Clear
3:53 AM 41.0 °F 34.3 °F 32.0 °F 70% 30.09 in 10.0 mi West 11.5 mph - N/A   Clear
4:53 AM 39.9 °F 33.9 °F 30.9 °F 70% 30.09 in 10.0 mi West 9.2 mph - N/A   Clear
5:53 AM 37.9 °F 31.5 °F 30.9 °F 76% 30.10 in 10.0 mi West 9.2 mph - N/A   Clear
6:53 AM 39.0 °F 32.3 °F 30.0 °F 70% 30.11 in 10.0 mi West 10.4 mph - N/A   Clear
7:53 AM 41.0 °F 35.2 °F 30.9 °F 67% 30.14 in 10.0 mi West 9.2 mph - N/A   Clear
8:53 AM 52.0 °F - 32.0 °F 47% 30.12 in 10.0 mi West 6.9 mph - N/A   Clear
9:53 AM 64.9 °F - 28.0 °F 25% 30.10 in 10.0 mi NW 6.9 mph - N/A   Clear
10:53 AM 69.1 °F - 25.0 °F 19% 30.11 in 10.0 mi NW 10.4 mph - N/A   Clear
11:53 AM 69.1 °F - 21.0 °F 16% 30.11 in 10.0 mi Variable 6.9 mph - N/A   Clear
12:53 PM 70.0 °F - 23.0 °F 17% 30.09 in 10.0 mi WNW 11.5 mph 25.3 mph N/A   Clear
1:53 PM 73.0 °F - 25.0 °F 17% 30.06 in 10.0 mi West 9.2 mph 17.3 mph N/A   Clear
2:53 PM 73.0 °F - 24.1 °F 16% 30.04 in 10.0 mi Variable 4.6 mph - N/A   Clear
3:53 PM 73.9 °F - 19.9 °F 13% 30.00 in 10.0 mi Calm Calm - N/A   Clear
4:53 PM 73.0 °F - 27.0 °F 18% 29.99 in 10.0 mi West 12.7 mph 18.4 mph N/A   Clear
5:53 PM 71.1 °F - 26.1 °F 19% 30.01 in 10.0 mi NW 10.4 mph - N/A   Clear
6:53 PM 68.0 °F - 25.0 °F 20% 30.02 in 10.0 mi WNW 15.0 mph 20.7 mph N/A   Clear
7:53 PM 64.0 °F - 25.0 °F 23% 30.04 in 10.0 mi WNW 12.7 mph - N/A   Clear
8:53 PM 55.9 °F - 28.0 °F 34% 30.04 in 10.0 mi West 8.1 mph - N/A   Clear
9:53 PM 52.0 °F - 28.9 °F 41% 30.01 in 10.0 mi WSW 9.2 mph - N/A   Clear
10:53 PM 46.9 °F - 28.9 °F 50% 30.01 in 10.0 mi West 9.2 mph - N/A   Clear
11:53 PM 51.1 °F - 27.0 °F 39% 29.99 in 10.0 mi NNE 4.6 mph - N/A   Clear